Regional Weather Roundup
Issued by NWS

Home | Current Version | Previous Version | Graphics & Text | Print | Product List | Glossary Off
Versions: 1 2 3 4 5 6 7 8 9 10 11 12 13 14 15 16 17 18 19 20 21 22 23 24 25 26 27 28 29 30 31 32 33 34 35 36 37 38 39 40 41 42 43 44 45 46 47 48 49 50

960
ASUS44 KJAN 231310
RWRMS

MISSISSIPPI HOURLY WEATHER ROUNDUP
NATIONAL WEATHER SERVICE JACKSON MS
800 AM CDT WED APR 23 2014

NOTE: "FAIR: INDICATES FEW OR NO CLOUDS BELOW 12,000 FEET WITH NO
SIGNIFICANT WEATHER AND/OR OBSTRUCTIONS TO VISIBILITY.

MSZ001>002-007>008-010>013-018>021-025>028-034>036-231400-
NORTHWEST MISSISSIPPI

CITY           SKY/WX    TMP DP  RH WIND       PRES   REMARKS
CLARKSDALE       N/A     57  46  67 NE7       30.05R
CLEVELAND      FAIR      58  49  74 E6        30.02R
GREENWOOD      SUNNY     59  46  62 NE6       30.02R
GREENVILLE     SUNNY     60  50  69 NE5       30.02R
GRENADA        FAIR      55  45  67 NE5       30.04R
OLIVE BRANCH   MOSUNNY   54  46  76 NE7       30.05S
OXFORD         FAIR      54  43  66 E7        30.06R
TUNICA         SUNNY     55  46  71 NE7       30.05R
$$

MSZ003>006-009-014>017-022>024-029>033-037>039-231400-
NORTHEAST MISSISSIPPI

CITY           SKY/WX    TMP DP  RH WIND       PRES   REMARKS
BELMONT        FAIR      54  46  72 N5        30.04R
COLUMBUS AFB   SUNNY     58  48  69 N6        30.02R
CORINTH        FAIR      52  45  76 N3        30.06R
GOLDN TRIANGLE SUNNY     57  48  72 NE6       30.04R
STARKVILLE     FAIR      59  48  67 NE7       30.02R
TUPELO         SUNNY     56  45  66 NE9       30.04R
$$

MSZ040-058-231400-
CENTRAL MISSISSIPPI

CITY           SKY/WX    TMP DP  RH WIND       PRES   REMARKS
JACKSON INTL   MOSUNNY   59  57  93 N5        30.00R FOG
JACKSON HAWKNS SUNNY     63  53  70 NE5       30.01R
MERIDIAN KEY   SUNNY     59  55  87 N6        30.00R
MERIDIAN NAS   MOSUNNY   60  54  80 NW3       30.00R
RAYMOND        FAIR      57  52  82 CALM      30.01S HAZE
VICKSBURG      SUNNY     61  59  93 CALM      30.01R
$$

MSZ059>079-231400-
SOUTH MISSISSIPPI

CITY           SKY/WX    TMP DP  RH WIND       PRES   REMARKS
BROOKHAVEN     FAIR      61  59  94 CALM      30.01R FOG
HATTIESBURG    SUNNY     63  60  90 N3        29.99R FOG
MCCOMB         SUNNY     65  58  78 N6        29.99R
NATCHEZ        SUNNY     59  55  88 CALM      30.00R
PINE BELT      SUNNY     64  55  72 N6        29.99R
$$

MSZ080>082-231400-
COASTAL MISSISSIPPI

CITY           SKY/WX    TMP DP  RH WIND       PRES   REMARKS
BAY ST LOUIS   SUNNY     55  54  94 CALM      29.98R
BILOXI         SUNNY     66  63  91 VRB1      29.97R
PASCAGOULA     MOSUNNY   63  63 100 N3        29.97R FOG
GULFPORT       SUNNY     68  62  81 N3        29.97R
$$



USA.gov is the U.S. government's official web portal to all federal, state and local government web resources and services.